Regional Weather Roundup
Issued by NWS

Home | Current Version | Previous Version | Graphics & Text | Print | Product List | Glossary On
Versions: 1 2 3 4 5 6 7 8 9 10 11 12 13 14 15 16 17 18 19 20 21 22 23 24 25 26 27 28 29 30 31 32 33 34 35 36 37 38 39 40 41 42 43 44 45 46 47 48 49 50
000
ASUS45 KTFX 220819
RWRMT
MONTANA HOURLY WEATHER ROUNDUP
NATIONAL WEATHER SERVICE GREAT FALLS MT
219 AM MDT MON SEP 22 2014

NOTE: "FAIR" INDICATES FEW OR NO CLOUDS BELOW 12000 FEET WITH NO
SIGNIFICANT WEATHER AND/OR OBSTRUCTIONS TO VISIBILITY.

* THESE STATIONS ARE NOT UNDER NWS QUALITY CONTROL. THEY DO NOT
   REPORT WEATHER SUCH AS PRECIPITATION OR FOG.

MTZ001>007-043-220900-
WEST OF THE DIVIDE
CITY           SKY/WX    TMP DP  RH WIND       PRES   REMARKS
KALISPELL      PTCLDY    48  43  83 CALM      29.95R
MISSOULA       PTCLDY    59  43  56 E5        29.98R
BUTTE          MOCLDY    50  39  66 SE5       30.12S
MULLAN PASS    PTCLDY    63  37  38 NW6       30.12R
* ESSEX        N/A       53  43  69 SE8        N/A
* LINCOLN      N/A       44  38  80 N/A        N/A
* POLSON       N/A       59  39  48 SE1        N/A
* RONAN APT    PTCLDY    50  43  77 N/A        N/A
* SEELEY LAKE  N/A       42  34  73 NE1        N/A
* THOMP F APT  PTCLDY    52  51  96 S1         N/A
$$

MTZ008-052>055-220900-
SOUTHWEST MONTANA
CITY           SKY/WX    TMP DP  RH WIND       PRES   REMARKS
BOZEMAN        MOCLDY    55  46  72 SW6       30.08R
DILLON         CLOUDY    57  43  60 CALM      30.11S
W YELLOWSTONE  CLOUDY    52  48  86 S7        30.24S
* THREE FORKS  MOCLDY    48  27  44 N/A        N/A
* BOULDER HILL N/A       54  37  53 S9         N/A
* MONIDA PASS  N/A       51  51 100 SE8        N/A
* RAYNOLDS PAS N/A       52  35  52 S9         N/A
* WHITEHALL    N/A       52  41  66 N2G10      N/A
* WISE RIVER   N/A       47  36  66 W2         N/A
$$

MTZ009>010-012-014-046-048-049-054-220900-
EAST SLOPES AND CENTRAL MONTANA
CITY           SKY/WX    TMP DP  RH WIND       PRES   REMARKS
CUT BANK       PTCLDY    46  39  77 NW3       29.97F
GREAT FALLS    CLEAR     61  45  56 S9        29.97F
HELENA         PTCLDY    55  45  69 CALM      30.03S
MALMSTROM AFB  CLEAR     54  45  72 S7        29.99F
* CONRAD       MOCLDY    43  43 100 N/A        N/A
* EAST GLACIER N/A       51  40  66 N11        N/A
* MONARCH      N/A       53  37  55 N/A        N/A
* PENDROY      N/A       57  47  69 SW6        N/A
* ROGERS PASS  N/A       61  42  50 NW5        N/A
* SAINT MARY   N/A       40  36  86 SE3        N/A
* SWEET GRASS  N/A       55  45  69 SW17       N/A
* WHITE SULPH  N/A       52  41  66 NE5        N/A
$$

MTZ011-013-016-021-035-040-045-047-050-051-220900-
NORTH CENTRAL MONTANA
CITY           SKY/WX    TMP DP  RH WIND       PRES   REMARKS
HAVRE          CLEAR     50  45  83 NE10      29.94F
LEWISTOWN      PTCLDY    52  41  66 SE8       30.02F
* CHINOOK      CLEAR     52  45  77 E6        29.96F
* FORT BENTON  CLEAR     52  45  77 S3        29.97S
* CHESTER      N/A       56  44  64 S3         N/A
* DENTON       N/A       55  41  59 SE12       N/A
* GEYSER       N/A       46  42  86 S8         N/A
* JUDITH GAP   N/A       50  43  77 SW6        N/A
* LOMA         N/A       56  45  67 NE8        N/A
$$

MTZ017>020-022>027-061-062-220900-
NORTHEAST MONTANA
CITY           SKY/WX    TMP DP  RH WIND       PRES   REMARKS
GLASGOW        CLEAR     52  36  55 E15       30.02F
JORDAN         CLEAR     54  37  53 E8        30.03F
SIDNEY         CLEAR     43  37  79 CALM      30.11F
WOLF POINT     CLEAR     46  36  68 E7        30.06F
* BEAVER HILL  N/A       56  35  45 SE18G25    N/A
* CIRCLE       N/A       53  38  57 N/A        N/A
* LINDSAY DVD  N/A       49  34  56 E6         N/A
$$

MTZ028>042-056>058-220900-
SOUTHCENTRAL AND SOUTHEAST MONTANA
CITY           SKY/WX    TMP DP  RH WIND       PRES   REMARKS
BAKER          CLEAR     48  36  63 SE7       30.14F
BILLINGS       MOCLDY    57  41  55 N3        30.02F
LIVINGSTON     CLOUDY    52  45  77 NW6       30.08F
MILES CITY     PTCLDY    63  36  37 SE13      30.05F
* LAUREL APT   CLOUDY    55  39  55 N/A        N/A
* ROUNDUP APT  PTCLDY    52  41  66 N/A        N/A
* ALZADA       N/A       48  39  71 E3         N/A
* HYSHAM       N/A       67  40  37 SE12G19    N/A
* LAME DEER    N/A       61  41  48 SE12G22    N/A
* REED POINT   N/A       50  47  89 W2         N/A
* ROSCOE HILL  N/A       58  40  51 SW1G6      N/A
$$

REGIONAL REPORTS...DAKOTAS
CITY           SKY/WX    TMP DP  RH WIND       PRES   REMARKS
WILLISTON      CLEAR     43  36  76 CALM      30.10F
DICKINSON      CLEAR     46  37  71 S10       30.14F
BEACH          HAZE      48  36  63 S9        30.13F VSB 3
CROSBY         CLEAR     48  41  77 S10       30.10F
TIOGA          CLEAR     39  39 100 SE3       30.15F
WATFORD CITY   HAZE      43  37  79 CALM      30.10F
BISMARCK       CLEAR     46  43  89 NE5       30.19F
GRAND FORKS    CLEAR     48  46  93 S8        30.14F
FARGO          CLEAR     52  46  80 S8        30.19F
BUFFALO SD     PTCLDY    50  36  59 SE8       30.10F
RAPID CITY     MOCLDY    52  37  57 SE12      30.19F
$$

REGIONAL REPORTS...WYOMING/IDAHO/WASHINGTON
CITY           SKY/WX    TMP DP  RH WIND       PRES   REMARKS
GILLETTE       PTCLDY    57  39  51 S16       30.14S
SHERIDAN       MOCLDY    54  45  72 S5        30.06F
CODY           CLOUDY   N/A N/A N/A N/A        N/A
YELLOWSTONE LA CLOUDY    48  46  93 CALM      30.33R
SALMON         CLOUDY    66  46  49 S5        30.04R
MULLAN PASS    PTCLDY    63  37  38 NW6       30.12S
SAND POINT     PTCLDY    50  50 100 CALM      29.92R
SPOKANE        MOCLDY    64  39  40 CALM      29.90S
$$

REGIONAL REPORTS...ALBERTA
CITY           SKY/WX    TMP DP  RH WIND       PRES   REMARKS
CALGARY        FAIR      55  41  59 SW5       29.87S
LETHBRIDGE     CLEAR     57  45  64 SW7G24    29.89F
MEDICINE HAT   CLEAR     54  46  74 N6        29.88F
EDMONTON       N/A       48  43  83 S2        29.76S
WATERTON GATE  N/A       57  39  51 S10        N/A
CARDSTON       N/A       55  39  55 SW6        N/A
MILK RIVER     N/A       52  45  77 SW6        N/A
$$

REGIONAL REPORTS...SASKATCHEWAN
CITY           SKY/WX    TMP DP  RH WIND       PRES   REMARKS
SWIFT CURRENT  CLEAR     55  39  55 S20G25    29.96F
REGINA         N/A       46  41  83 SE8       30.05F
VAL MARIE      N/A       45  39  80 W1         N/A
ASSINIBOIA     N/A       46  37  71 SE7        N/A
CORONACH       N/A       46  36  68 SE6        N/A

$$




USA.gov is the U.S. government's official web portal to all federal, state and local government web resources and services.